#timestamp,LO_Frequency,Hit 
1499932815.2,286046916.1,N
1499932835.1,286046918.0,N
1499932836.0,286046918.0,N
1499932855.8,286046915.2,N
1499932875.6,286046917.8,N
1499932895.5,286046915.0,N
1499932915.3,286046917.6,N
1499932935.1,286046917.1,N
1499932955.8,286046915.5,N
1499932975.7,286046914.7,N
1499932995.5,286046914.8,N
1499933015.3,286046912.2,N
1499933035.2,286046910.5,N
1499933055.9,286046910.4,N
1499933075.7,286046911.1,N
1499933095.6,286046907.6,N
1499933115.4,286046908.6,N
1499933135.2,286046911.6,N
1499933155.1,286046909.8,N
1499933156.0,286046909.8,N
1499933175.8,286046909.3,N
1499933195.6,286046911.1,N
1499933215.5,286046910.1,N
1499933235.3,286046914.8,N
1499933255.1,286046912.7,N
1499933275.9,286046910.6,N
1499933295.7,286046912.5,N
1499933315.5,286046908.6,N
1499933335.3,286046909.7,N
1499933355.2,286046908.4,N
1499933375.0,286046908.0,N
1499933375.9,286046908.0,N
1499933395.7,286046905.7,N
1499933415.6,286046906.8,N
1499933435.4,286046903.3,N
1499933455.2,286046903.7,N
1499933475.1,286046903.8,N
1499933476.0,286046903.8,N
1499933495.8,286046902.5,N
1499933515.6,286046904.9,N
1499933535.5,286046903.8,N
1499933555.3,286046908.4,N
1499933575.1,286046909.4,N
1499933595.9,286046906.3,N
1499933615.7,286046906.6,N
1499933635.5,286046906.4,N
1499933655.4,286046904.7,N
1499933675.2,286046902.8,N
1499933695.0,286046901.8,N
1499933695.9,286046901.8,N
1499933715.8,286046899.0,N
1499933735.6,286046900.0,N
1499933755.4,286046901.8,N
1499933775.3,286046901.5,N
1499933795.1,286046901.6,N
1499933796.0,286046901.6,N
1499933815.8,286046902.2,N
1499933835.6,286046905.2,N
1499933855.5,286046904.0,N
1499933875.3,286046903.8,N
1499933895.1,286046903.8,N
1499933915.9,286046903.7,N
1499933935.7,286046905.1,N
1499933955.5,286046902.3,N
1499933975.4,286046905.1,N
1499933995.2,286046906.3,N
1499934015.0,286046906.0,N
1499934015.9,286046906.0,N
1499934035.8,286046903.7,N
1499934055.6,286046906.0,N
1499934075.4,286046905.6,N
1499934095.3,286046904.3,N
1499934115.1,286046900.5,N
1499934116.0,286046900.5,N
1499934135.8,286046900.2,N
1499934155.7,286046899.2,N
1499934175.5,286046901.5,N
1499934195.3,286046901.3,N
1499934215.2,286046902.0,N
1499934235.9,286046900.3,N
1499934255.7,286046899.0,N
1499934275.5,286046898.4,N
1499934295.4,286046898.6,N
1499934315.2,286046895.8,N
1499934335.0,286046898.4,N
1499934335.9,286046898.4,N
1499934355.8,286046898.6,N
1499934375.6,286046898.4,N
1499934395.4,286046896.4,N
1499934415.3,286046894.6,N
1499934435.1,286046897.0,N
1499934436.0,286046897.0,N
1499934455.8,286046896.0,N
1499934475.7,286046898.2,N
1499934495.5,286046897.7,N
1499934515.3,286046897.4,N
1499934535.2,286046898.5,N
1499934555.9,286046897.1,N
1499934575.7,286046894.4,N
1499934595.6,286046895.6,N
1499934615.4,286046892.8,N
1499934635.2,286046893.6,N
1499934655.0,286046893.9,N
1499934656.0,286046893.9,N
1499934675.8,286046893.5,N
1499934695.6,286046893.3,N
1499934715.4,286046895.5,N
1499934735.3,286046893.6,N
1499934755.1,286046892.8,N
1499934775.8,286046893.7,N
1499934795.7,286046892.8,N
1499934815.5,286046892.8,N
1499934835.3,286046893.3,N
1499934855.2,286046893.9,N
1499934875.9,286046893.6,N
1499934895.7,286046893.6,N
1499934915.6,286046893.8,N
1499934935.4,286046892.6,N
1499934955.2,286046893.1,N
1499934975.1,286046889.6,N
1499934976.0,286046889.6,N
1499934995.8,286046889.4,N
1499935015.6,286046892.3,N
1499935035.5,286046890.3,N
1499935055.3,286046892.3,N
1499935075.1,286046889.3,N
1499935095.8,286046892.0,N
1499935115.7,286046892.4,N
1499935135.5,286046890.0,N
1499935155.3,286046892.3,N
1499935175.2,286046889.4,N
1499935195.0,286046891.8,N
1499935195.9,286046891.8,N
1499935215.7,286046894.0,N
1499935235.6,286046890.2,N
1499935255.4,286046887.7,N
1499935275.2,286046887.9,N
1499935295.1,286046884.6,N
1499935296.0,286046884.6,N
1499935315.8,286046888.9,N
1499935335.6,286046889.6,N
1499935355.5,286046890.6,N
1499935375.3,286046890.0,N
1499935395.1,286046891.8,N
1499935415.9,286046889.4,N
1499935435.7,286046886.2,N
1499935455.5,286046885.2,N
1499935475.4,286046885.0,N
1499935495.2,286046887.1,N
1499935515.0,286046887.6,N
1499935515.9,286046887.6,N
1499935535.8,286046885.3,N
1499935555.6,286046885.3,N
1499935575.4,286046884.7,N
1499935595.2,286046885.4,N
1499935615.1,286046882.9,N
1499935616.0,286046882.9,N
1499935635.8,286046881.7,N
1499935655.6,286046881.4,N
1499935675.5,286046883.5,N
1499935695.3,286046883.2,N
1499935715.1,286046883.2,N
1499935735.9,286046884.1,N
1499935755.7,286046884.0,N
1499935775.5,286046883.0,N
1499935795.4,286046883.2,N
1499935815.2,286046882.1,N
1499935835.0,286046882.2,N
1499935835.9,286046882.2,N
1499935855.8,286046880.3,N
1499935875.6,286046881.0,N
1499935895.4,286046878.6,N
1499935915.3,286046880.0,N
1499935935.1,286046880.7,N
1499935936.0,286046880.7,N
1499935955.8,286046879.3,N
1499935975.7,286046878.4,N
1499935995.5,286046878.1,N
1499936015.3,286046876.9,N
1499936035.2,286046875.9,N
1499936055.9,286046877.6,N
1499936075.7,286046875.1,N
1499936095.6,286046874.1,N
1499936115.4,286046871.8,N
1499936135.2,286046874.2,N
1499936155.0,286046873.9,N
1499936156.0,286046873.9,N
1499936175.8,286046877.8,N
1499936195.6,286046876.1,N
1499936215.4,286046875.5,N
1499936235.3,286046874.2,N
1499936255.1,286046875.2,N
1499936275.8,286046874.0,N
1499936295.7,286046873.6,N
1499936315.5,286046872.7,N
1499936335.3,286046867.7,N
1499936355.2,286046867.8,N
1499936375.9,286046868.2,N
1499936395.7,286046864.0,N
